AFL1731 UHPP-UUEE

Flight info

Callsign AFL1731
Flight time N/A
Altitude 32000
Route BAKEN4L BAKEN A812 BAGOP/K0885F360 A812 OLEGA T411 LABAR M131 GISAP/K0904F380 M131 AMEGO P65 ROMTA ROMTA3F
Aircraft B77W/H-SDE1E2E3FGHIJ2J3J4J5M1RWXY/LB1D1

Departure

Time 2026-04-26 09:08
Airport Yelizovo Airport (UHPP)

Arrival

Time N/A
Airport Sheremetyevo International Airport (UUEE)
Time Latitude Longitude Altitude Speed Heading
2026-04-26 08:21 53.16878 158.42737 131 ft 0 kts 270°
2026-04-26 08:53 53.16878 158.42741 130 ft 2 kts 270°
2026-04-26 08:54 53.16878 158.42766 130 ft 2 kts 270°
2026-04-26 08:54 53.16878 158.42790 130 ft 2 kts 271°
2026-04-26 08:54 53.16876 158.42815 130 ft 2 kts 284°
2026-04-26 08:54 53.16872 158.42839 130 ft 2 kts 294°
2026-04-26 08:55 53.16864 158.42860 130 ft 2 kts 303°
2026-04-26 08:55 53.16856 158.42880 130 ft 2 kts 313°
2026-04-26 08:55 53.16845 158.42897 130 ft 2 kts 322°
2026-04-26 08:55 53.16835 158.42908 130 ft 0 kts 330°
2026-04-26 08:56 53.16833 158.42911 130 ft 0 kts 331°
2026-04-26 09:00 53.16840 158.42903 130 ft 2 kts 331°
2026-04-26 09:00 53.16876 158.42870 130 ft 9 kts 330°
2026-04-26 09:00 53.16945 158.42860 130 ft 11 kts 49°
2026-04-26 09:01 53.17029 158.42947 130 ft 18 kts 17°
2026-04-26 09:01 53.17131 158.43095 130 ft 22 kts 58°
2026-04-26 09:01 53.17212 158.43330 130 ft 23 kts 59°
2026-04-26 09:01 53.17294 158.43565 130 ft 23 kts 59°
2026-04-26 09:02 53.17376 158.43799 130 ft 23 kts 59°
2026-04-26 09:02 53.17456 158.44037 130 ft 23 kts 67°
2026-04-26 09:02 53.17512 158.44257 130 ft 15 kts 70°
2026-04-26 09:02 53.17471 158.44389 130 ft 14 kts 158°
2026-04-26 09:03 53.17375 158.44457 130 ft 15 kts 156°
2026-04-26 09:03 53.17273 158.44530 131 ft 16 kts 156°
2026-04-26 09:03 53.17168 158.44600 131 ft 16 kts 158°
2026-04-26 09:03 53.17059 158.44673 131 ft 17 kts 158°
2026-04-26 09:04 53.16946 158.44751 131 ft 17 kts 156°
2026-04-26 09:04 53.16832 158.44830 131 ft 18 kts 157°
2026-04-26 09:04 53.16715 158.44910 131 ft 18 kts 157°
2026-04-26 09:04 53.16597 158.44991 131 ft 18 kts 158°
2026-04-26 09:05 53.16478 158.45070 131 ft 18 kts 157°
2026-04-26 09:05 53.16358 158.45158 132 ft 18 kts 156°
2026-04-26 09:05 53.16238 158.45242 132 ft 18 kts 157°
2026-04-26 09:05 53.16116 158.45328 132 ft 19 kts 157°
2026-04-26 09:06 53.16079 158.45493 132 ft 17 kts 72°
2026-04-26 09:06 53.16161 158.45596 132 ft 11 kts 351°
2026-04-26 09:06 53.16188 158.45583 132 ft 0 kts 340°
2026-04-26 09:07 53.16299 158.45512 132 ft 51 kts 337°
2026-04-26 09:07 53.16867 158.45116 132 ft 125 kts 337°
2026-04-26 09:08 53.17860 158.44428 276 ft 175 kts 335°
2026-04-26 09:08 53.19019 158.43581 955 ft 185 kts 334°
2026-04-26 09:08 53.20118 158.42780 2128 ft 175 kts 335°
2026-04-26 09:08 53.21274 158.41974 2801 ft 192 kts 336°
2026-04-26 09:09 53.22546 158.41100 3571 ft 206 kts 336°
2026-04-26 09:09 53.23905 158.40163 4381 ft 221 kts 337°
2026-04-26 09:09 53.25367 158.39154 5206 ft 237 kts 337°
2026-04-26 09:09 53.26908 158.38092 6078 ft 251 kts 338°
2026-04-26 09:10 53.28554 158.36955 7123 ft 261 kts 338°
2026-04-26 09:10 53.30188 158.35826 8207 ft 258 kts 337°
2026-04-26 09:10 53.31866 158.34665 8856 ft 266 kts 337°
2026-04-26 09:10 53.33560 158.33491 9613 ft 267 kts 337°
2026-04-26 09:11 53.35298 158.32285 10295 ft 273 kts 336°
2026-04-26 09:11 53.36995 158.30711 10648 ft 289 kts 327°
2026-04-26 09:11 53.38720 158.28860 11063 ft 305 kts 327°
2026-04-26 09:11 53.40559 158.26878 11460 ft 321 kts 327°
2026-04-26 09:12 53.42497 158.24786 11898 ft 336 kts 327°
2026-04-26 09:12 53.44500 158.22620 12321 ft 350 kts 327°
2026-04-26 09:12 53.46569 158.20380 12914 ft 359 kts 327°
2026-04-26 09:12 53.48663 158.18111 13647 ft 364 kts 326°
2026-04-26 09:13 53.50791 158.15802 14450 ft 367 kts 326°
2026-04-26 09:13 53.52931 158.13478 15217 ft 370 kts 326°
2026-04-26 09:13 53.55099 158.11119 15932 ft 375 kts 326°
2026-04-26 09:13 53.57294 158.08728 16682 ft 378 kts 326°
2026-04-26 09:14 53.59495 158.06329 17380 ft 382 kts 326°
2026-04-26 09:14 53.61727 158.03891 18086 ft 385 kts 326°
2026-04-26 09:14 53.63958 158.01454 18755 ft 389 kts 326°
2026-04-26 09:14 53.66217 157.98982 19427 ft 393 kts 326°
2026-04-26 09:15 53.68597 157.96614 20097 ft 396 kts 330°
2026-04-26 09:15 53.70975 157.94373 20793 ft 398 kts 330°
2026-04-26 09:15 53.73392 157.92085 21433 ft 401 kts 330°
2026-04-26 09:15 53.75829 157.89769 22068 ft 404 kts 330°
2026-04-26 09:16 53.78293 157.87416 22686 ft 407 kts 330°
2026-04-26 09:16 53.80760 157.85037 23314 ft 409 kts 329°
2026-04-26 09:16 53.83224 157.82638 23892 ft 411 kts 329°
2026-04-26 09:16 53.85700 157.80223 24449 ft 414 kts 329°
2026-04-26 09:17 53.88221 157.77759 24993 ft 417 kts 329°
2026-04-26 09:17 53.90738 157.75296 25501 ft 419 kts 329°
2026-04-26 09:17 53.93264 157.72821 25992 ft 422 kts 329°
2026-04-26 09:17 53.95786 157.70344 26440 ft 425 kts 329°
2026-04-26 09:18 53.98373 157.67802 26850 ft 429 kts 329°
2026-04-26 09:18 54.00953 157.65262 27315 ft 431 kts 329°
2026-04-26 09:18 54.03512 157.62740 27746 ft 434 kts 329°
2026-04-26 09:18 54.06133 157.60150 28165 ft 437 kts 329°
2026-04-26 09:19 54.08773 157.57539 28540 ft 439 kts 329°
2026-04-26 09:19 54.11383 157.54956 28870 ft 442 kts 329°
2026-04-26 09:19 54.14058 157.52319 29279 ft 443 kts 329°
2026-04-26 09:19 54.16697 157.49719 29789 ft 441 kts 329°
2026-04-26 09:20 54.19347 157.47104 30326 ft 438 kts 329°
2026-04-26 09:20 54.21971 157.44510 30787 ft 436 kts 329°
2026-04-26 09:20 54.24580 157.41928 31161 ft 436 kts 329°
2026-04-26 09:20 54.27187 157.39342 31427 ft 437 kts 329°
2026-04-26 09:21 54.29816 157.36731 31648 ft 439 kts 329°
2026-04-26 09:21 54.32454 157.34106 31863 ft 441 kts 329°
2026-04-26 09:21 54.35090 157.31480 32098 ft 442 kts 329°
2026-04-26 09:21 54.37756 157.28821 32335 ft 442 kts 329°
2026-04-26 09:22 54.40390 157.26189 32551 ft 443 kts 329°
2026-04-26 09:22 54.43075 157.23502 32748 ft 445 kts 329°
2026-04-26 09:22 54.45719 157.20851 32954 ft 447 kts 329°
2026-04-26 09:22 54.48399 157.18161 33198 ft 447 kts 329°
2026-04-26 09:23 54.51086 157.15460 33425 ft 448 kts 329°
2026-04-26 09:23 54.53768 157.12759 33635 ft 450 kts 329°
2026-04-26 09:23 54.56459 157.10045 33832 ft 452 kts 329°
2026-04-26 09:24 54.61873 157.04573 33867 ft 451 kts 329°
2026-04-26 09:24 54.67255 156.99115 33896 ft 451 kts 329°
2026-04-26 09:25 54.72660 156.93619 33923 ft 450 kts 329°
2026-04-26 09:25 54.78059 156.88110 33955 ft 452 kts 329°
2026-04-26 09:26 54.83430 156.82616 33971 ft 452 kts 329°
2026-04-26 09:26 54.88784 156.77119 33958 ft 452 kts 329°
2026-04-26 09:27 54.94225 156.71523 33970 ft 453 kts 329°
2026-04-26 09:27 54.99614 156.65958 33969 ft 453 kts 329°
2026-04-26 09:28 55.05033 156.60333 33976 ft 452 kts 329°
2026-04-26 09:28 55.10424 156.54721 33989 ft 452 kts 329°
2026-04-26 09:29 55.15803 156.49104 33989 ft 452 kts 329°
2026-04-26 09:29 55.21211 156.43457 33988 ft 453 kts 329°
2026-04-26 09:30 55.26644 156.37766 33999 ft 453 kts 329°
2026-04-26 09:30 55.32037 156.32097 34013 ft 453 kts 328°
2026-04-26 09:31 55.37444 156.26395 34012 ft 453 kts 328°
2026-04-26 09:31 55.42868 156.20642 34013 ft 453 kts 328°
2026-04-26 09:32 55.48224 156.14925 34017 ft 454 kts 328°
2026-04-26 09:32 55.53638 156.09126 34032 ft 454 kts 328°
2026-04-26 09:33 55.59037 156.03325 34034 ft 454 kts 328°
2026-04-26 09:33 55.64421 155.97522 34041 ft 454 kts 328°
2026-04-26 09:34 55.69813 155.91692 34044 ft 454 kts 328°
2026-04-26 09:34 55.75148 155.85904 34041 ft 453 kts 328°
2026-04-26 09:35 55.80531 155.80046 34042 ft 455 kts 328°
2026-04-26 09:35 55.85905 155.74178 34045 ft 456 kts 328°
2026-04-26 09:36 55.91263 155.68308 34043 ft 454 kts 328°
2026-04-26 09:36 55.96612 155.62427 34045 ft 454 kts 328°
2026-04-26 09:37 56.01975 155.56514 34046 ft 455 kts 329°
2026-04-26 09:37 56.07348 155.50571 34048 ft 455 kts 329°
2026-04-26 09:38 56.12717 155.44609 34054 ft 456 kts 329°
2026-04-26 09:38 56.18083 155.38632 34052 ft 456 kts 329°
2026-04-26 09:39 56.23483 155.32707 34057 ft 456 kts 328°
2026-04-26 09:39 56.28877 155.26798 34056 ft 455 kts 328°
2026-04-26 09:40 56.34287 155.20845 34056 ft 456 kts 328°
2026-04-26 09:40 56.39654 155.14917 34056 ft 456 kts 328°
2026-04-26 09:41 56.45036 155.08952 34056 ft 457 kts 328°
2026-04-26 09:41 56.50458 155.02920 34055 ft 458 kts 328°
2026-04-26 09:42 56.55855 154.96898 34056 ft 458 kts 328°
2026-04-26 09:42 56.61224 154.90884 34057 ft 458 kts 328°
2026-04-26 09:43 56.66638 154.84801 34057 ft 457 kts 328°
2026-04-26 09:43 56.72015 154.78738 34058 ft 457 kts 329°
2026-04-26 09:44 56.77407 154.72636 34061 ft 458 kts 328°
2026-04-26 09:44 56.82766 154.66553 34059 ft 458 kts 329°
2026-04-26 09:45 56.88161 154.60406 34062 ft 458 kts 329°
2026-04-26 09:45 56.93549 154.54248 34060 ft 458 kts 329°
2026-04-26 09:46 56.98943 154.48061 34067 ft 458 kts 329°
2026-04-26 09:46 57.04306 154.41887 34069 ft 457 kts 329°
2026-04-26 09:47 57.09697 154.35660 34073 ft 457 kts 329°
2026-04-26 09:47 57.15059 154.29445 34077 ft 458 kts 328°
2026-04-26 09:48 57.20425 154.23202 34077 ft 458 kts 328°
2026-04-26 09:48 57.25765 154.16879 34077 ft 458 kts 328°
2026-04-26 09:49 57.31083 154.10550 34076 ft 458 kts 328°
2026-04-26 09:49 57.36409 154.04192 34075 ft 458 kts 328°
2026-04-26 09:50 57.41766 153.97774 34075 ft 458 kts 328°
2026-04-26 09:50 57.47084 153.91382 34073 ft 458 kts 328°
2026-04-26 09:51 57.52400 153.84970 34076 ft 458 kts 328°
2026-04-26 09:51 57.57721 153.78536 34076 ft 458 kts 328°
2026-04-26 09:52 57.63045 153.72067 34072 ft 459 kts 328°
2026-04-26 09:52 57.71057 153.62291 34070 ft 459 kts 328°
2026-04-26 09:53 57.76392 153.55754 34072 ft 459 kts 328°
2026-04-26 09:53 57.81677 153.49260 34072 ft 459 kts 328°
2026-04-26 09:54 57.87005 153.42719 34072 ft 458 kts 328°
2026-04-26 09:54 57.92342 153.36145 34071 ft 459 kts 328°
2026-04-26 09:55 57.97648 153.29582 34069 ft 460 kts 327°
2026-04-26 09:55 58.02948 153.23004 34071 ft 459 kts 327°
2026-04-26 09:56 58.08272 153.16373 34074 ft 459 kts 327°
2026-04-26 09:56 58.13568 153.09750 34079 ft 459 kts 327°
2026-04-26 09:57 58.18874 153.03091 34083 ft 460 kts 327°
2026-04-26 09:57 58.24090 152.96159 34082 ft 460 kts 326°
2026-04-26 09:58 58.29310 152.89140 34077 ft 460 kts 326°
2026-04-26 09:58 58.34522 152.82138 34080 ft 460 kts 326°
2026-04-26 09:59 58.39697 152.75166 34078 ft 461 kts 326°
2026-04-26 09:59 58.44929 152.68095 34077 ft 460 kts 326°
2026-04-26 10:00 58.50100 152.61084 34076 ft 460 kts 326°
2026-04-26 10:00 58.55293 152.54016 34075 ft 459 kts 326°
2026-04-26 10:01 58.60538 152.47043 34074 ft 459 kts 328°
2026-04-26 10:01 58.65836 152.40300 34074 ft 460 kts 328°
2026-04-26 10:02 58.71118 152.33536 34072 ft 460 kts 327°
2026-04-26 10:02 58.76445 152.26666 34077 ft 461 kts 327°
2026-04-26 10:03 58.81694 152.19840 34071 ft 460 kts 327°
2026-04-26 10:03 58.86969 152.12953 34066 ft 460 kts 327°
2026-04-26 10:04 58.92258 152.06020 34053 ft 459 kts 327°
2026-04-26 10:04 58.97526 151.99087 34032 ft 459 kts 327°
2026-04-26 10:05 59.02816 151.92101 33997 ft 461 kts 327°
2026-04-26 10:05 59.08092 151.85104 33992 ft 461 kts 327°
2026-04-26 10:06 59.13334 151.78175 34010 ft 460 kts 327°
2026-04-26 10:06 59.18624 151.71190 34033 ft 460 kts 327°
2026-04-26 10:07 59.23923 151.64162 34068 ft 461 kts 327°
2026-04-26 10:07 59.29170 151.57175 34086 ft 461 kts 327°
2026-04-26 10:08 59.34465 151.50107 34092 ft 461 kts 327°
2026-04-26 10:08 59.39726 151.43080 34089 ft 461 kts 327°
2026-04-26 10:09 59.45032 151.35963 34090 ft 461 kts 327°
2026-04-26 10:09 59.50282 151.28896 34101 ft 462 kts 327°
2026-04-26 10:10 59.55561 151.21759 34096 ft 461 kts 327°
2026-04-26 10:10 59.60826 151.14615 34093 ft 461 kts 327°
2026-04-26 10:11 59.66081 151.07355 34082 ft 462 kts 326°
2026-04-26 10:11 59.71267 151.00056 34075 ft 462 kts 326°
2026-04-26 10:12 59.76503 150.92667 34045 ft 462 kts 326°
2026-04-26 10:12 59.81728 150.85268 34011 ft 462 kts 326°
2026-04-26 10:13 59.86921 150.77885 34015 ft 462 kts 326°
2026-04-26 10:13 59.92155 150.70438 34023 ft 462 kts 327°
2026-04-26 10:14 59.97420 150.63304 34042 ft 461 kts 328°
2026-04-26 10:14 60.02726 150.56105 34040 ft 461 kts 328°
2026-04-26 10:15 60.08000 150.48910 34028 ft 462 kts 327°
2026-04-26 10:15 60.13305 150.41635 34027 ft 461 kts 327°
2026-04-26 10:16 60.18575 150.34381 34028 ft 462 kts 327°
2026-04-26 10:16 60.23869 150.27065 34033 ft 462 kts 327°
2026-04-26 10:17 60.29125 150.19769 34020 ft 462 kts 327°
2026-04-26 10:17 60.34377 150.12454 33981 ft 461 kts 327°
2026-04-26 10:18 60.39640 150.05101 33941 ft 462 kts 327°
2026-04-26 10:18 60.44906 149.97714 33905 ft 463 kts 327°
2026-04-26 10:19 60.50166 149.90309 33898 ft 463 kts 327°
2026-04-26 10:19 60.55441 149.82852 33911 ft 462 kts 327°
2026-04-26 10:20 60.60686 149.75409 33941 ft 462 kts 327°
2026-04-26 10:20 60.65947 149.67912 33945 ft 462 kts 327°
2026-04-26 10:21 60.71185 149.60419 33931 ft 462 kts 327°
2026-04-26 10:21 60.76419 149.52899 33910 ft 463 kts 327°
2026-04-26 10:22 60.81658 149.45343 33927 ft 464 kts 327°
2026-04-26 10:22 60.86916 149.37727 33945 ft 463 kts 327°
2026-04-26 10:23 60.92139 149.30131 33963 ft 463 kts 326°
2026-04-26 10:23 60.97391 149.22461 34000 ft 462 kts 326°
2026-04-26 10:24 61.02594 149.14831 34024 ft 462 kts 326°
2026-04-26 10:24 61.07825 149.07130 34018 ft 463 kts 326°
2026-04-26 10:25 61.13017 148.99454 34027 ft 463 kts 326°
2026-04-26 10:25 61.18242 148.91702 34022 ft 463 kts 326°
2026-04-26 10:26 61.23432 148.83980 34012 ft 462 kts 326°
2026-04-26 10:26 61.28661 148.76167 33988 ft 463 kts 326°
2026-04-26 10:27 61.33841 148.68394 33964 ft 463 kts 326°
2026-04-26 10:27 61.39047 148.60550 33953 ft 464 kts 326°
2026-04-26 10:28 61.44247 148.52679 33958 ft 461 kts 327°
2026-04-26 10:28 61.49406 148.44840 33985 ft 462 kts 327°
2026-04-26 10:29 61.54602 148.36897 34007 ft 462 kts 326°
2026-04-26 10:29 61.59758 148.28961 33991 ft 462 kts 326°
2026-04-26 10:30 61.64898 148.21017 33962 ft 461 kts 326°
2026-04-26 10:30 61.70072 148.12988 33957 ft 461 kts 326°
2026-04-26 10:31 61.75210 148.04980 33964 ft 460 kts 326°
2026-04-26 10:31 61.80352 147.96935 33990 ft 461 kts 326°
2026-04-26 10:32 61.85513 147.88821 33997 ft 461 kts 326°
2026-04-26 10:32 61.90620 147.80762 34004 ft 461 kts 326°
2026-04-26 10:33 61.95742 147.72643 34011 ft 460 kts 326°
2026-04-26 10:33 62.00841 147.64523 34021 ft 460 kts 326°
2026-04-26 10:34 62.05960 147.56340 34027 ft 461 kts 326°
2026-04-26 10:34 62.11070 147.48135 34027 ft 461 kts 326°
2026-04-26 10:35 62.16216 147.39836 34040 ft 461 kts 326°
2026-04-26 10:35 62.21314 147.31580 34049 ft 461 kts 325°
2026-04-26 10:36 62.26421 147.23270 34041 ft 461 kts 325°
2026-04-26 10:36 62.31526 147.14929 34042 ft 461 kts 325°
2026-04-26 10:37 62.36593 147.06613 34027 ft 460 kts 325°
2026-04-26 10:37 62.41708 146.98184 34019 ft 461 kts 325°
2026-04-26 10:38 62.46763 146.89816 34013 ft 461 kts 325°
2026-04-26 10:38 62.51820 146.81406 34011 ft 460 kts 325°
2026-04-26 10:39 62.56897 146.72928 34028 ft 461 kts 326°
2026-04-26 10:39 62.61916 146.64506 34050 ft 460 kts 326°
2026-04-26 10:40 62.66968 146.55997 34065 ft 461 kts 326°
2026-04-26 10:40 62.72035 146.47447 34074 ft 461 kts 326°
2026-04-26 10:41 62.77072 146.38910 34048 ft 461 kts 326°
2026-04-26 10:41 62.82110 146.30331 34018 ft 461 kts 325°
2026-04-26 10:42 62.87127 146.21751 34009 ft 461 kts 325°
2026-04-26 10:42 62.92170 146.13088 34045 ft 462 kts 325°
2026-04-26 10:43 62.97189 146.04427 34070 ft 462 kts 325°
2026-04-26 10:43 63.02201 145.95738 34089 ft 461 kts 325°
2026-04-26 10:44 63.07185 145.87071 34052 ft 460 kts 325°
2026-04-26 10:44 63.12225 145.78281 34031 ft 460 kts 325°
2026-04-26 10:45 63.17213 145.69539 34023 ft 460 kts 325°
2026-04-26 10:45 63.22212 145.60738 34009 ft 460 kts 325°
2026-04-26 10:46 63.27192 145.51929 34015 ft 460 kts 325°
2026-04-26 10:46 63.32139 145.43138 34007 ft 458 kts 325°
2026-04-26 10:47 63.37085 145.34276 34000 ft 459 kts 324°
2026-04-26 10:47 63.42049 145.25325 33991 ft 459 kts 324°
2026-04-26 10:48 63.46986 145.16386 34017 ft 460 kts 324°
2026-04-26 10:48 63.51905 145.07437 34003 ft 460 kts 324°
2026-04-26 10:49 63.56849 144.98401 33996 ft 459 kts 324°
2026-04-26 10:49 63.61765 144.89378 33992 ft 458 kts 324°
2026-04-26 10:50 63.65854 144.81839 33956 ft 456 kts 324°
2026-04-26 10:50 63.71560 144.71272 33938 ft 457 kts 324°
2026-04-26 10:51 63.78875 144.57642 33966 ft 457 kts 324°
2026-04-26 10:52 63.83731 144.48540 33984 ft 456 kts 324°
2026-04-26 10:52 63.88603 144.39368 33989 ft 457 kts 324°
2026-04-26 10:53 63.93483 144.30135 33970 ft 455 kts 323°
2026-04-26 10:53 63.98296 144.20989 33961 ft 456 kts 323°
2026-04-26 10:54 64.05578 144.07068 33984 ft 457 kts 323°
2026-04-26 10:54 64.10436 143.97739 34010 ft 456 kts 324°
2026-04-26 10:55 64.15259 143.88449 34007 ft 455 kts 323°
2026-04-26 10:55 64.20101 143.79074 33997 ft 454 kts 323°
2026-04-26 10:56 64.24873 143.69794 33965 ft 452 kts 323°
2026-04-26 10:56 64.29654 143.60466 33971 ft 454 kts 323°
2026-04-26 10:57 64.34457 143.51059 34009 ft 453 kts 323°
2026-04-26 10:57 64.39228 143.41669 34031 ft 453 kts 323°
2026-04-26 10:58 64.44008 143.32214 34031 ft 452 kts 323°
2026-04-26 10:58 64.48748 143.22795 34010 ft 452 kts 323°
2026-04-26 10:59 64.53519 143.13272 34021 ft 453 kts 323°
2026-04-26 10:59 64.58144 143.03432 34042 ft 453 kts 319°
2026-04-26 11:00 64.62617 142.93169 34031 ft 454 kts 319°
2026-04-26 11:00 64.67097 142.82893 34031 ft 453 kts 319°
2026-04-26 11:01 64.71567 142.72626 34034 ft 453 kts 319°
2026-04-26 11:01 64.76042 142.62311 34026 ft 453 kts 319°
2026-04-26 11:02 64.80501 142.51991 34012 ft 454 kts 319°
2026-04-26 11:02 64.84952 142.41641 34005 ft 454 kts 319°
2026-04-26 11:03 64.89433 142.31174 34003 ft 454 kts 318°
2026-04-26 11:03 64.93886 142.20725 34002 ft 455 kts 318°
2026-04-26 11:04 64.98338 142.10223 33987 ft 456 kts 318°
2026-04-26 11:04 65.02836 141.99597 33991 ft 456 kts 318°
2026-04-26 11:05 65.07272 141.89098 34005 ft 454 kts 318°
2026-04-26 11:05 65.11714 141.78529 34033 ft 454 kts 318°
2026-04-26 11:06 65.16203 141.67795 34016 ft 455 kts 318°
2026-04-26 11:06 65.20610 141.57202 34000 ft 454 kts 318°
2026-04-26 11:07 65.25063 141.46448 33987 ft 456 kts 317°
2026-04-26 11:07 65.29488 141.35701 33980 ft 455 kts 317°
2026-04-26 11:08 65.33923 141.24881 33963 ft 456 kts 316°
2026-04-26 11:08 65.38323 141.14088 33956 ft 455 kts 316°
2026-04-26 11:09 65.42725 141.03241 33977 ft 457 kts 316°
2026-04-26 11:09 65.47143 140.92296 33979 ft 456 kts 316°
2026-04-26 11:10 65.51548 140.81325 33962 ft 456 kts 316°
2026-04-26 11:10 65.55926 140.70366 33960 ft 457 kts 316°
2026-04-26 11:11 65.60263 140.59451 33961 ft 458 kts 316°
2026-04-26 11:11 65.64642 140.48378 33955 ft 458 kts 316°
2026-04-26 11:12 65.69059 140.37146 33961 ft 459 kts 315°
2026-04-26 11:12 65.73423 140.25993 33985 ft 459 kts 315°
2026-04-26 11:13 65.77818 140.14702 34007 ft 459 kts 314°
2026-04-26 11:13 65.82181 140.03430 33997 ft 460 kts 314°
2026-04-26 11:14 65.86542 139.92105 33995 ft 459 kts 314°
2026-04-26 11:14 65.90868 139.80814 33976 ft 461 kts 314°
2026-04-26 11:15 65.95255 139.69299 33954 ft 461 kts 314°
2026-04-26 11:15 65.99591 139.57857 33981 ft 462 kts 314°
2026-04-26 11:16 66.03952 139.46286 34024 ft 461 kts 314°
2026-04-26 11:16 66.08290 139.34715 34033 ft 462 kts 313°
2026-04-26 11:17 66.12640 139.23047 34038 ft 462 kts 313°
2026-04-26 11:17 66.16983 139.11317 34044 ft 462 kts 313°
2026-04-26 11:18 66.21264 138.99568 34039 ft 463 kts 312°
2026-04-26 11:18 66.25555 138.87726 34035 ft 463 kts 312°
2026-04-26 11:19 66.29803 138.75941 34038 ft 462 kts 312°
2026-04-26 11:19 66.34091 138.63986 34021 ft 463 kts 312°
2026-04-26 11:20 66.37633 138.54060 34020 ft 463 kts 312°
2026-04-26 11:20 66.42600 138.40060 34042 ft 464 kts 312°
2026-04-26 11:21 66.46855 138.27997 34077 ft 463 kts 311°
2026-04-26 11:21 66.51080 138.15950 34113 ft 464 kts 311°
2026-04-26 11:22 66.55315 138.03813 34095 ft 464 kts 311°
2026-04-26 11:22 66.59534 137.91647 34091 ft 465 kts 311°
2026-04-26 11:23 66.63780 137.79335 34082 ft 465 kts 311°
2026-04-26 11:23 66.67963 137.67136 34077 ft 464 kts 311°
2026-04-26 11:24 66.72166 137.54811 34072 ft 464 kts 311°
2026-04-26 11:24 66.76369 137.42453 34071 ft 464 kts 311°
2026-04-26 11:25 66.80552 137.30110 34093 ft 466 kts 310°
2026-04-26 11:25 66.84776 137.17574 34096 ft 466 kts 310°
2026-04-26 11:26 66.88942 137.05133 34101 ft 465 kts 310°
2026-04-26 11:26 66.93117 136.92593 34104 ft 465 kts 310°
2026-04-26 11:27 66.97280 136.80020 34109 ft 465 kts 310°
2026-04-26 11:27 67.01421 136.67441 34117 ft 466 kts 310°
2026-04-26 11:28 67.05577 136.54738 34116 ft 466 kts 310°
2026-04-26 11:28 67.09697 136.42072 34115 ft 466 kts 310°
2026-04-26 11:29 67.13839 136.29265 34121 ft 466 kts 309°
2026-04-26 11:29 67.17971 136.16412 34133 ft 465 kts 309°
2026-04-26 11:30 67.21435 136.05678 34145 ft 466 kts 309°
2026-04-26 11:30 67.26298 135.90712 34152 ft 465 kts 309°
2026-04-26 11:31 67.30444 135.77859 34154 ft 466 kts 309°
2026-04-26 11:31 67.34572 135.64981 34158 ft 466 kts 309°
2026-04-26 11:32 67.38688 135.52060 34163 ft 466 kts 310°
2026-04-26 11:32 67.42788 135.39110 34164 ft 466 kts 309°
2026-04-26 11:33 67.46887 135.26083 34152 ft 466 kts 309°
2026-04-26 11:33 67.50991 135.12964 34149 ft 467 kts 309°
2026-04-26 11:34 67.55067 134.99854 34153 ft 466 kts 309°
2026-04-26 11:34 67.59107 134.86783 34152 ft 466 kts 309°
2026-04-26 11:35 67.63163 134.73578 34161 ft 467 kts 309°
2026-04-26 11:35 67.67289 134.60440 34157 ft 467 kts 310°
2026-04-26 11:36 67.71496 134.47475 34154 ft 467 kts 310°
2026-04-26 11:36 67.75681 134.34467 34142 ft 466 kts 309°
2026-04-26 11:37 67.79871 134.21352 34141 ft 465 kts 309°
2026-04-26 11:37 67.83999 134.08334 34149 ft 466 kts 310°
2026-04-26 11:38 67.88145 133.95175 34152 ft 467 kts 310°
2026-04-26 11:38 67.92287 133.81949 34158 ft 467 kts 310°
2026-04-26 11:39 67.96426 133.68684 34160 ft 467 kts 310°
2026-04-26 11:39 68.00590 133.55580 34157 ft 467 kts 310°
2026-04-26 11:40 68.04769 133.42352 34154 ft 467 kts 310°
2026-04-26 11:40 68.08941 133.29054 34145 ft 466 kts 309°
2026-04-26 11:42 68.25207 132.75082 34163 ft 466 kts 308°
2026-04-26 11:43 68.29229 132.61478 34163 ft 466 kts 308°
2026-04-26 11:43 68.33241 132.47821 34147 ft 467 kts 308°
2026-04-26 11:44 68.37227 132.34172 34136 ft 467 kts 307°
2026-04-26 11:44 68.41248 132.20311 34130 ft 466 kts 307°
2026-04-26 11:45 68.45241 132.06464 34122 ft 465 kts 307°
2026-04-26 11:45 68.49203 131.92631 34105 ft 465 kts 307°
2026-04-26 11:46 68.53159 131.78734 34070 ft 465 kts 307°
2026-04-26 11:46 68.57101 131.64795 34069 ft 467 kts 307°
2026-04-26 11:47 68.61054 131.50726 34082 ft 468 kts 307°
2026-04-26 11:47 68.64984 131.36652 34107 ft 468 kts 307°
2026-04-26 11:48 68.68933 131.22415 34137 ft 469 kts 306°
2026-04-26 11:48 68.72864 131.08148 34139 ft 468 kts 306°
2026-04-26 11:49 68.76771 130.93878 34124 ft 468 kts 306°
2026-04-26 11:49 68.80669 130.79542 34132 ft 469 kts 306°
2026-04-26 11:50 68.84564 130.65124 34130 ft 470 kts 306°
2026-04-26 11:50 68.88442 130.50671 34133 ft 470 kts 306°
2026-04-26 11:51 68.92329 130.36095 34111 ft 470 kts 306°
2026-04-26 11:51 68.96183 130.21536 34086 ft 470 kts 305°
2026-04-26 11:52 69.00039 130.06876 34086 ft 470 kts 305°
2026-04-26 11:52 69.03887 129.92146 34108 ft 470 kts 305°
2026-04-26 11:53 69.07695 129.77469 34102 ft 469 kts 305°
2026-04-26 11:54 69.13397 129.55306 34087 ft 470 kts 305°
2026-04-26 11:54 69.17208 129.40364 34074 ft 471 kts 305°
2026-04-26 11:55 69.20979 129.25478 34057 ft 471 kts 304°
2026-04-26 11:55 69.24775 129.10390 34028 ft 470 kts 304°
2026-04-26 11:56 69.28515 128.95473 34019 ft 469 kts 304°
2026-04-26 11:56 69.32294 128.80466 34001 ft 469 kts 304°
2026-04-26 11:57 69.36044 128.65463 33994 ft 470 kts 304°
2026-04-26 11:57 69.39790 128.50371 34012 ft 471 kts 304°
2026-04-26 11:58 69.43536 128.35170 34033 ft 471 kts 304°
2026-04-26 11:58 69.47286 128.19844 34026 ft 470 kts 303°
2026-04-26 11:59 69.50989 128.04602 34043 ft 470 kts 303°
2026-04-26 11:59 69.54702 127.89207 34044 ft 470 kts 303°
2026-04-26 12:00 69.58384 127.73834 34052 ft 471 kts 303°
2026-04-26 12:00 69.62051 127.58414 34044 ft 471 kts 303°
2026-04-26 12:01 69.65713 127.42901 34040 ft 472 kts 303°
2026-04-26 12:01 69.69386 127.27229 34076 ft 472 kts 302°
2026-04-26 12:02 69.73048 127.11493 34111 ft 473 kts 302°
2026-04-26 12:02 69.76705 126.95661 34134 ft 473 kts 302°
2026-04-26 12:03 69.80338 126.79823 34137 ft 473 kts 302°
2026-04-26 12:03 69.83947 126.63966 34142 ft 473 kts 302°